[[{"header":{"parameterUnit":"m.s-1","parameterCategory":1,"la1":30.2991,"la2":30.254,"lo1":-89.0895,"lo2":-89.0444,"dy":0.0017,"dx":0.0017,"nx":28,"ny":28,"refTime":"2024-04-25T21:00:00:Z","depth":0,"parameterNumber":2,"parameterNumberName":"U-component_of_WINDS"},"data":[0,0,0,0,0,0,0,0,0,0,0,0,0,0,0,0,0,0,0,0,0,0,0,0,0,0,0,0,0,0,0,0,0,0,0,0,0,0,0,0,0,0,0,0,0,0,0,0,0,0,0,0,0,0,0,0,0,0,-1.0193,-1.0193,0,-1.0183,-1.0183,-1.0183,-1.0143,-1.0142,-1.0142,-1.0141,-1.0132,-1.0133,-1.0133,0,0,0,0,0,0,0,0,0,0,0,0,0,-1.0179,-1.018,-1.0193,-1.0193,-1.0193,-1.0183,-1.0183,-1.0183,-1.0144,-1.0142,-1.0141,-1.014,-1.0132,-1.0132,-1.0133,0,0,0,0,0,0,0,0,0,0,0,0,0,-1.0179,-1.018,-1.0193,-1.0172,-1.017,-1.0183,-1.0183,-1.0183,-1.0144,-1.0142,-1.0141,-1.014,-1.0131,-1.0132,-1.0133,-1.0167,0,0,-1.0136,-1.0137,0,0,0,0,0,0,0,0,-1.0179,-1.018,-1.0175,-1.0173,-1.0171,-1.0163,-1.0175,-1.0178,-1.0144,-1.0154,-1.0141,-1.0139,-1.0144,-1.0143,-1.0145,-1.0166,-1.0166,-1.0136,-1.0137,-1.0137,-1.0138,0,0,0,0,0,0,0,-1.0179,-1.018,-1.0189,-1.0175,-1.0173,-1.0164,-1.0162,-1.0175,-1.0157,-1.0153,-1.015,-1.0149,-1.0142,-1.0144,-1.0144,-1.0166,-1.0136,-1.0137,-1.0138,-1.0138,-1.0216,-1.0217,0,0,0,0,0,0,-1.0182,-1.018,-1.019,-1.0189,-1.0172,-1.0165,-1.0163,-1.0167,-1.0156,-1.0153,-1.015,-1.0147,-1.0143,-1.0143,-1.0144,-1.0183,-1.0137,-1.0138,-1.0139,-1.0214,-1.0216,-1.0218,0,0,0,0,0,0,-1.0182,-1.0183,-1.019,-1.0184,-1.0184,-1.0167,-1.0171,-1.0168,-1.0169,-1.0154,-1.0151,-1.0155,-1.0142,-1.0142,-1.0161,-1.0182,-1.0139,-1.0139,-1.0212,-1.0215,-1.0217,-1.0261,0,0,0,0,0,0,-1.0182,-1.0183,-1.0195,-1.0184,-1.0184,-1.0208,-1.0173,-1.0169,-1.0171,-1.0167,-1.0158,-1.0156,-1.0141,-1.016,-1.0162,-1.0182,-1.014,-1.021,-1.0213,-1.0216,-1.0258,-1.0264,-1.027,0,0,0,0,0,-1.0181,-1.0208,-1.0196,-1.0198,-1.0199,-1.0209,-1.0209,-1.0191,-1.0173,-1.0185,-1.0176,-1.0156,-1.0179,-1.0163,-1.0165,-1.0185,-1.0209,-1.0213,-1.0216,-1.0255,-1.0263,-1.027,0,0,0,0,0,0,-1.0222,-1.0206,-1.0193,-1.0217,-1.0215,-1.0202,-1.0217,-1.02,-1.0203,-1.0199,-1.0177,-1.0176,-1.0198,-1.0194,-1.0175,-1.0218,-1.0191,-1.0195,-1.022,-1.0228,-1.0234,-1.0235,-1.0141,0,0,0,0,0,-1.0234,-1.0243,-1.0229,-1.0251,-1.0251,-1.0234,-1.0238,-1.0224,-1.0221,-1.022,-1.0212,-1.021,-1.0217,-1.0222,-1.0227,-1.0257,-1.0255,-1.0272,-1.0278,-1.0284,-1.0287,-1.0303,-1.0311,-1.0229,-1.0229,-1.0229,0,0,-1.0259,-1.0251,-1.0258,-1.026,-1.0256,-1.0266,-1.0234,-1.0246,-1.0253,-1.0222,-1.0239,-1.0234,-1.023,-1.0255,-1.0265,-1.0251,-1.031,-1.0288,-1.0292,-1.0293,-1.0308,-1.0316,-1.0323,-1.0231,-1.0231,-1.023,0,0,-1.0309,-1.0304,-1.0323,-1.032,-1.0315,-1.0304,-1.0309,-1.0299,-1.0294,-1.0311,-1.0288,-1.0297,-1.0309,-1.0308,-1.0309,-1.036,-1.0342,-1.0362,-1.0395,-1.0411,-1.0418,-1.0423,-1.0442,-1.0449,-1.0366,-1.0366,-1.0366,0,-1.0341,-1.0355,-1.0335,-1.0348,-1.035,-1.0322,-1.0341,-1.034,-1.0337,-1.0339,-1.0324,-1.0339,-1.0335,-1.0359,-1.0372,-1.0373,-1.0378,-1.0363,-1.0418,-1.0424,-1.0429,-1.0447,-1.0454,-1.0368,-1.0368,-1.0368,-1.0368,0,-1.0394,-1.0404,-1.042,-1.0418,-1.0422,-1.0438,-1.0421,-1.0427,-1.0414,-1.0405,-1.0423,-1.0417,-1.0421,-1.0426,-1.0413,-1.0449,-1.044,-1.0422,-1.0395,-1.044,-1.0456,-1.0463,-1.0372,-1.0371,-1.037,-1.037,0,0,-1.047,-1.0457,-1.0463,-1.0462,-1.0455,-1.0463,-1.0479,-1.0483,-1.0489,-1.0488,-1.0501,-1.0513,-1.0496,-1.0497,-1.0483,-1.0497,-1.0539,-1.0477,-1.0477,-1.049,-1.058,-1.0594,-1.0602,-1.0527,-1.0528,-1.0529,-1.058,0,-1.0518,-1.0544,-1.0527,-1.0555,-1.0565,-1.0539,-1.0553,-1.055,-1.0542,-1.055,-1.0541,-1.055,-1.0527,-1.0527,-1.054,-1.0531,-1.0557,-1.0527,-1.054,-1.0541,-1.0542,-1.061,-1.0625,-1.0674,-1.0586,-1.0587,-1.0588,0,-1.0578,-1.058,-1.061,-1.0602,-1.0605,-1.0618,-1.062,-1.0628,-1.0625,-1.0618,-1.062,-1.0603,-1.0619,-1.0592,-1.0614,-1.0594,-1.0598,-1.0595,-1.0596,-1.0597,-1.0568,-1.0614,-1.0688,-1.0696,-1.0598,-1.0597,-1.0596,0,-1.0632,-1.0642,-1.0661,-1.0661,-1.0651,-1.0661,-1.0658,-1.0653,-1.0657,-1.066,-1.0662,-1.0667,-1.0669,-1.0673,-1.0659,-1.064,-1.0683,-1.0654,-1.0678,-1.0679,-1.0689,-1.0688,-1.0766,-1.0691,-1.0691,-1.069,-1.069,0,-1.0688,-1.0707,-1.0685,-1.0697,-1.0718,-1.0698,-1.072,-1.0714,-1.0711,-1.0722,-1.0699,-1.071,-1.0689,-1.0699,-1.0687,-1.0707,-1.0709,-1.0704,-1.0701,-1.0707,-1.0707,-1.0709,-1.0706,-1.0692,-1.0692,-1.0691,-1.0691,0,-1.0751,-1.0737,-1.0756,-1.0746,-1.0744,-1.076,-1.0751,-1.0762,-1.0753,-1.0767,-1.0769,-1.0755,-1.0764,-1.075,-1.0758,-1.075,-1.0779,-1.077,-1.078,-1.0777,-1.0802,-1.0801,-1.0884,-1.0894,-1.0812,-1.0813,-1.0814,0,-1.0789,-1.0803,-1.0794,-1.0799,-1.0797,-1.0806,-1.081,-1.0792,-1.0797,-1.0795,-1.0806,-1.0814,-1.0819,-1.0836,-1.0826,-1.0833,-1.0824,-1.0853,-1.0825,-1.0831,-1.0826,-1.0825,-1.0827,-1.0859,-1.086,-1.0861,-1.0862,0,-1.0856,-1.0849,-1.0855,-1.0859,-1.0864,-1.0866,-1.0866,-1.0872,-1.0853,-1.086,-1.0869,-1.0873,-1.0881,-1.0889,-1.0893,-1.089,-1.0874,-1.0871,-1.0877,-1.0883,-1.0888,-1.0886,-1.0796,-1.0869,-1.0868,-1.0868,-1.0867,-1.0867,-1.0908,-1.092,-1.0916,-1.0924,-1.0922,-1.0923,-1.0933,-1.0925,-1.0933,-1.0938,-1.0926,-1.0939,-1.0936,-1.094,-1.0939,-1.0949,-1.0936,-1.0945,-1.0947,-1.095,-1.0954,-1.0886,-1.0949,-1.0949,-1.0949,-1.0949,-1.0949,0,-1.0976,-1.0972,-1.0979,-1.0981,-1.0987,-1.097,-1.097,-1.0976,-1.0987,-1.0986,-1.0992,-1.1003,-1.1011,-1.1002,-1.1009,-1.1019,-1.1011,-1.1021,-1.1021,-1.102,-1.0964,-1.0959,-1.1027,-1.1027,-1.1027,-1.1027,-1.1027,-1.1027,-1.1012,-1.1031,-1.1023,-1.1042,-1.1038,-1.1049,-1.1051,-1.1052,-1.1052,-1.1065,-1.1071,-1.1066,-1.1062,-1.1068,-1.1075,-1.1072,-1.1076,-1.1089,-1.1084,-1.1032,-1.1024,-1.1017,-1.1012,-1.109,-1.109,-1.1139,-1.1139,-1.114]},{"header":{"parameterUnit":"m.s-1","parameterCategory":1,"la1":30.2991,"la2":30.254,"lo1":-89.0895,"lo2":-89.0444,"dy":0.0017,"dx":0.0017,"nx":28,"ny":28,"refTime":"2024-04-25T21:00:00:Z","depth":0,"parameterNumber":3,"parameterNumberName":"V-component_of_WINDS"},"data":[0,0,0,0,0,0,0,0,0,0,0,0,0,0,0,0,0,0,0,0,0,0,0,0,0,0,0,0,0,0,0,0,0,0,0,0,0,0,0,0,0,0,0,0,0,0,0,0,0,0,0,0,0,0,0,0,0,0,3.5832,3.5831,0,3.5804,3.5804,3.5803,3.5732,3.5731,3.5729,3.5728,3.5701,3.5702,3.5703,0,0,0,0,0,0,0,0,0,0,0,0,0,3.5824,3.5825,3.5832,3.5831,3.5831,3.5804,3.5804,3.5803,3.5733,3.5731,3.5729,3.5727,3.5701,3.5702,3.5703,0,0,0,0,0,0,0,0,0,0,0,0,0,3.5815,3.5825,3.5832,3.5792,3.5788,3.5804,3.5804,3.5803,3.5733,3.5731,3.5728,3.5726,3.5701,3.5702,3.5703,3.5755,0,0,3.5706,3.5706,0,0,0,0,0,0,0,0,3.5816,3.5816,3.5798,3.5795,3.5791,3.5769,3.5791,3.5787,3.5734,3.5754,3.5728,3.5725,3.5726,3.5725,3.5725,3.5754,3.5752,3.5706,3.5707,3.5707,3.5707,0,0,0,0,0,0,0,3.5816,3.5816,3.5821,3.5798,3.5794,3.5776,3.5773,3.579,3.5753,3.5752,3.5747,3.5745,3.5723,3.5724,3.5723,3.5752,3.5706,3.5707,3.5708,3.5708,3.5822,3.5824,0,0,0,0,0,0,3.5823,3.5817,3.5822,3.582,3.5798,3.5778,3.5774,3.5779,3.5753,3.5747,3.5747,3.5741,3.5723,3.5722,3.5722,3.578,3.5707,3.5708,3.5709,3.5819,3.5822,3.5825,0,0,0,0,0,0,3.5823,3.5824,3.5823,3.5817,3.5816,3.5781,3.5786,3.5779,3.5779,3.5748,3.5742,3.5754,3.5721,3.5721,3.5747,3.5778,3.5709,3.571,3.5816,3.582,3.5823,3.5898,0,0,0,0,0,0,3.5823,3.5824,3.5843,3.5818,3.5816,3.5848,3.5788,3.578,3.5781,3.5774,3.5753,3.5748,3.5719,3.5746,3.5748,3.5779,3.571,3.5813,3.5818,3.5822,3.5892,3.5903,3.5913,0,0,0,0,0,3.5823,3.5866,3.5844,3.5845,3.5839,3.585,3.5849,3.5815,3.5784,3.5803,3.5783,3.5748,3.5775,3.5749,3.5751,3.5782,3.5811,3.5817,3.5822,3.5888,3.5901,3.5913,0,0,0,0,0,0,3.5896,3.5862,3.5838,3.5874,3.5865,3.5838,3.586,3.583,3.583,3.5824,3.5783,3.5778,3.581,3.5799,3.5771,3.5831,3.5787,3.5793,3.5837,3.5849,3.5859,3.5861,3.5711,0,0,0,0,0,3.5916,3.5927,3.5897,3.5932,3.5928,3.5896,3.5899,3.5873,3.5863,3.5859,3.5841,3.5832,3.5839,3.5844,3.5848,3.5891,3.5885,3.5914,3.5924,3.5932,3.5938,3.5959,3.5971,3.5842,3.5842,3.5842,0,0,3.5958,3.5941,3.595,3.5946,3.5936,3.5948,3.5893,3.5908,3.5917,3.5861,3.5884,3.5871,3.5859,3.5894,3.5908,3.5885,3.5972,3.5939,3.5946,3.5947,3.5965,3.5978,3.5988,3.5846,3.5845,3.5845,0,0,3.6041,3.6029,3.6056,3.6047,3.6033,3.6011,3.6018,3.5995,3.5984,3.6006,3.5964,3.5975,3.5987,3.5979,3.5977,3.6057,3.6025,3.606,3.6113,3.6134,3.6144,3.6153,3.618,3.6191,3.6066,3.6066,3.6066,0,3.6095,3.6111,3.6074,3.6092,3.6091,3.6041,3.6068,3.6062,3.605,3.6051,3.6026,3.6039,3.6027,3.6059,3.6079,3.6079,3.6085,3.6061,3.6146,3.6154,3.6162,3.6187,3.6198,3.607,3.607,3.6069,3.6069,0,3.6177,3.6189,3.6213,3.6202,3.6204,3.6227,3.6193,3.62,3.6175,3.6156,3.6179,3.6164,3.6163,3.6169,3.6145,3.6198,3.6184,3.6153,3.6108,3.6179,3.6202,3.6212,3.6076,3.6075,3.6074,3.6072,0,0,3.6304,3.6272,3.6281,3.6275,3.6256,3.6265,3.6286,3.6285,3.6291,3.6285,3.63,3.6312,3.6283,3.6281,3.6256,3.6274,3.6337,3.6241,3.624,3.6258,3.6393,3.6415,3.6427,3.6317,3.6318,3.632,3.6393,0,3.638,3.6412,3.638,3.6419,3.6429,3.6382,3.64,3.639,3.6373,3.638,3.6361,3.6369,3.6331,3.6329,3.6346,3.6326,3.6364,3.6321,3.633,3.6331,3.6333,3.6439,3.6462,3.6533,3.6402,3.6404,3.6405,0,3.6473,3.647,3.651,3.6488,3.6491,3.6507,3.6503,3.6511,3.6499,3.6485,3.6483,3.6452,3.6471,3.6428,3.6453,3.6425,3.6427,3.6418,3.642,3.6418,3.6371,3.6439,3.6554,3.6564,3.6419,3.6418,3.6417,0,3.656,3.6566,3.659,3.6587,3.6562,3.6574,3.6565,3.6551,3.6552,3.655,3.655,3.655,3.655,3.6551,3.6521,3.6493,3.6549,3.6504,3.6538,3.6539,3.655,3.655,3.6666,3.6555,3.6555,3.6554,3.6554,0,3.6647,3.6673,3.6629,3.6643,3.6671,3.6634,3.6662,3.6648,3.6636,3.6647,3.6608,3.6619,3.658,3.6588,3.6565,3.6588,3.6589,3.6578,3.6571,3.658,3.6582,3.658,3.6574,3.6557,3.6557,3.6556,3.6556,0,3.6748,3.6719,3.6742,3.6717,3.6711,3.6732,3.671,3.6723,3.6703,3.6718,3.672,3.6689,3.6696,3.6667,3.6669,3.6653,3.6688,3.6674,3.6692,3.6687,3.6721,3.6718,3.6839,3.6853,3.6735,3.6736,3.6737,0,3.6805,3.6823,3.6799,3.6804,3.6796,3.6804,3.6805,3.677,3.6772,3.676,3.6775,3.6778,3.6779,3.6792,3.677,3.6771,3.6756,3.6799,3.6756,3.6764,3.6755,3.6753,3.6755,3.6807,3.6809,3.681,3.6811,0,3.6908,3.6893,3.6896,3.6894,3.6896,3.6893,3.6887,3.6893,3.6855,3.6861,3.6866,3.6867,3.6869,3.6872,3.6869,3.6859,3.6829,3.6825,3.6832,3.6841,3.685,3.6844,3.6714,3.6822,3.682,3.682,3.6819,3.6819,3.6987,3.7001,3.6987,3.6991,3.6983,3.6978,3.6989,3.697,3.6974,3.6972,3.6952,3.6962,3.695,3.6942,3.6935,3.6943,3.6923,3.6934,3.6936,3.6939,3.6945,3.685,3.6942,3.6942,3.6942,3.6941,3.6941,0,3.7088,3.7076,3.708,3.7073,3.7076,3.7047,3.7039,3.7044,3.7053,3.7044,3.7046,3.7052,3.7056,3.7035,3.7035,3.7045,3.7031,3.7046,3.7044,3.7042,3.6963,3.6956,3.7058,3.7058,3.7058,3.7058,3.7058,3.7058,3.714,3.7161,3.7145,3.7162,3.715,3.7159,3.7157,3.7153,3.7145,3.7154,3.7157,3.7143,3.7129,3.7128,3.713,3.7123,3.7125,3.7145,3.7134,3.706,3.7048,3.7037,3.703,3.7146,3.7146,3.7212,3.7212,3.7213]}]]